Time,TemperatureF,DewpointF,PressureIn,WindDirection,WindDirectionDegrees,WindSpeedMPH,WindSpeedGustMPH,Humidity,HourlyPrecipIn,Conditions,Clouds,dailyrainin,SoftwareType,DateUTC
2013-01-16 00:02:00,37.6,26.6,30.21,NNE,22,8.7,9.6,64,0.00,,,0.00,WUHU21623XXSP,2013-01-16 08:02:00,
2013-01-16 00:07:00,37.7,26.3,30.21,NE,45,8.5,10.3,63,0.00,,,0.00,WUHU21623XXSP,2013-01-16 08:07:00,
2013-01-16 00:12:00,37.7,26.3,30.21,NE,45,8.9,11.2,63,0.00,,,0.00,WUHU21623XXSP,2013-01-16 08:12:00,
2013-01-16 00:17:00,37.7,26.3,30.21,ENE,67,8.9,11.2,63,0.00,,,0.00,WUHU21623XXSP,2013-01-16 08:17:00,
2013-01-16 00:22:00,37.7,26.3,30.21,ENE,67,6.0,10.3,63,0.00,,,0.00,WUHU21623XXSP,2013-01-16 08:22:00,
2013-01-16 00:27:00,37.6,26.6,30.21,ENE,67,4.7,10.3,64,0.00,,,0.00,WUHU21623XXSP,2013-01-16 08:27:00,
2013-01-16 00:32:00,37.6,26.6,30.21,ENE,67,6.9,7.4,64,0.00,,,0.00,WUHU21623XXSP,2013-01-16 08:32:00,
2013-01-16 00:37:00,37.4,26.4,30.21,ENE,67,5.1,7.4,64,0.00,,,0.00,WUHU21623XXSP,2013-01-16 08:37:00,
2013-01-16 00:42:00,37.4,26.4,30.22,NE,45,3.8,8.7,64,0.00,,,0.00,WUHU21623XXSP,2013-01-16 08:42:00,
2013-01-16 00:47:00,37.6,26.6,30.21,NE,45,0.0,8.7,64,0.00,,,0.00,WUHU21623XXSP,2013-01-16 08:47:00,
2013-01-16 00:52:00,37.6,26.6,30.22,ENE,67,3.8,7.8,64,0.00,,,0.00,WUHU21623XXSP,2013-01-16 08:52:00,
2013-01-16 00:57:00,37.7,26.7,30.22,ENE,67,2.0,8.1,64,0.00,,,0.00,WUHU21623XXSP,2013-01-16 08:57:00,
2013-01-16 01:02:00,37.7,26.7,30.22,ENE,67,5.8,8.1,64,0.00,,,0.00,WUHU21623XXSP,2013-01-16 09:02:00,
2013-01-16 01:07:00,37.7,26.7,30.22,ENE,67,2.5,7.6,64,0.00,,,0.00,WUHU21623XXSP,2013-01-16 09:07:00,
2013-01-16 01:12:00,37.6,26.6,30.22,ENE,67,0.0,5.8,64,0.00,,,0.00,WUHU21623XXSP,2013-01-16 09:12:00,
2013-01-16 01:17:00,37.4,26.4,30.22,ENE,67,0.0,3.4,64,0.00,,,0.00,WUHU21623XXSP,2013-01-16 09:17:00,
2013-01-16 01:22:00,37.4,26.0,30.21,NE,45,4.5,6.7,63,0.00,,,0.00,WUHU21623XXSP,2013-01-16 09:22:00,
2013-01-16 01:27:00,37.4,26.0,30.21,NE,45,7.8,11.2,63,0.00,,,0.00,WUHU21623XXSP,2013-01-16 09:27:00,
2013-01-16 01:32:00,37.4,26.0,30.21,NE,45,0.0,11.2,63,0.00,,,0.00,WUHU21623XXSP,2013-01-16 09:32:00,
2013-01-16 01:37:00,37.0,25.6,30.22,ENE,67,0.0,7.4,63,0.00,,,0.00,WUHU21623XXSP,2013-01-16 09:37:00,
2013-01-16 01:42:00,37.0,25.6,30.22,ENE,67,0.0,4.7,63,0.00,,,0.00,WUHU21623XXSP,2013-01-16 09:42:00,
2013-01-16 01:47:00,36.8,25.5,30.22,ESE,112,0.0,0.0,63,0.00,,,0.00,WUHU21623XXSP,2013-01-16 09:47:00,
2013-01-16 01:52:00,36.8,25.5,30.23,SE,135,0.0,4.5,63,0.00,,,0.00,WUHU21623XXSP,2013-01-16 09:52:00,
2013-01-16 01:57:00,36.8,25.5,30.23,SE,135,0.0,4.5,63,0.00,,,0.00,WUHU21623XXSP,2013-01-16 09:57:00,
2013-01-16 02:02:00,36.8,25.5,30.23,SE,135,0.0,0.0,63,0.00,,,0.00,WUHU21623XXSP,2013-01-16 10:02:00,
2013-01-16 02:07:00,36.8,25.5,30.23,SE,135,0.0,0.0,63,0.00,,,0.00,WUHU21623XXSP,2013-01-16 10:07:00,
2013-01-16 02:12:00,36.5,25.2,30.23,NNE,22,0.0,0.0,63,0.00,,,0.00,WUHU21623XXSP,2013-01-16 10:12:00,
2013-01-16 02:17:00,36.5,25.2,30.23,NNE,22,0.0,2.9,63,0.00,,,0.00,WUHU21623XXSP,2013-01-16 10:17:00,
2013-01-16 02:22:00,36.3,25.0,30.23,NNE,22,0.0,2.9,63,0.00,,,0.00,WUHU21623XXSP,2013-01-16 10:22:00,
2013-01-16 02:27:00,36.1,24.8,30.23,NNE,22,0.0,0.0,63,0.00,,,0.00,WUHU21623XXSP,2013-01-16 10:27:00,
2013-01-16 02:32:00,35.9,24.6,30.23,ENE,67,0.0,0.0,63,0.00,,,0.00,WUHU21623XXSP,2013-01-16 10:32:00,
2013-01-16 02:37:00,35.6,24.7,30.23,East,90,0.0,0.0,64,0.00,,,0.00,WUHU21623XXSP,2013-01-16 10:37:00,
2013-01-16 02:42:00,35.4,24.5,30.23,East,90,0.0,0.0,64,0.00,,,0.00,WUHU21623XXSP,2013-01-16 10:42:00,
2013-01-16 02:47:00,35.2,24.3,30.23,East,90,0.0,0.0,64,0.00,,,0.00,WUHU21623XXSP,2013-01-16 10:47:00,
2013-01-16 02:52:00,35.0,24.1,30.22,East,90,0.0,0.0,64,0.00,,,0.00,WUHU21623XXSP,2013-01-16 10:52:00,
2013-01-16 02:57:00,34.7,23.8,30.22,East,90,0.0,0.0,64,0.00,,,0.00,WUHU21623XXSP,2013-01-16 10:57:00,
2013-01-16 03:02:00,34.7,23.8,30.22,East,90,0.0,0.0,64,0.00,,,0.00,WUHU21623XXSP,2013-01-16 11:02:00,
2013-01-16 03:07:00,34.5,23.6,30.22,East,90,0.0,0.0,64,0.00,,,0.00,WUHU21623XXSP,2013-01-16 11:07:00,
2013-01-16 03:12:00,34.3,23.8,30.22,East,90,0.0,0.0,65,0.00,,,0.00,WUHU21623XXSP,2013-01-16 11:12:00,
2013-01-16 03:17:00,34.3,23.8,30.21,East,90,0.0,0.9,65,0.00,,,0.00,WUHU21623XXSP,2013-01-16 11:17:00,
2013-01-16 03:22:00,34.1,23.6,30.21,East,90,0.0,2.5,65,0.00,,,0.00,WUHU21623XXSP,2013-01-16 11:22:00,
2013-01-16 03:27:00,34.0,23.9,30.21,East,90,0.0,2.5,66,0.00,,,0.00,WUHU21623XXSP,2013-01-16 11:27:00,
2013-01-16 03:32:00,34.0,23.9,30.21,East,90,0.0,0.0,66,0.00,,,0.00,WUHU21623XXSP,2013-01-16 11:32:00,
2013-01-16 03:37:00,33.8,23.7,30.21,ESE,112,0.0,1.6,66,0.00,,,0.00,WUHU21623XXSP,2013-01-16 11:37:00,
2013-01-16 03:42:00,33.8,24.1,30.21,East,90,0.0,1.6,67,0.00,,,0.00,WUHU21623XXSP,2013-01-16 11:42:00,
2013-01-16 03:47:00,33.8,24.1,30.21,East,90,0.0,0.0,67,0.00,,,0.00,WUHU21623XXSP,2013-01-16 11:47:00,
2013-01-16 03:52:00,34.0,23.9,30.21,East,90,0.0,0.0,66,0.00,,,0.00,WUHU21623XXSP,2013-01-16 11:52:00,
2013-01-16 03:57:00,34.1,23.6,30.21,East,90,0.0,0.0,65,0.00,,,0.00,WUHU21623XXSP,2013-01-16 11:57:00,
2013-01-16 04:02:00,34.1,23.6,30.20,East,90,0.0,0.0,65,0.00,,,0.00,WUHU21623XXSP,2013-01-16 12:02:00,
2013-01-16 04:07:00,34.1,23.6,30.20,East,90,0.0,0.0,65,0.00,,,0.00,WUHU21623XXSP,2013-01-16 12:07:00,
2013-01-16 04:12:00,34.1,23.3,30.20,East,90,0.0,0.0,64,0.00,,,0.00,WUHU21623XXSP,2013-01-16 12:12:00,
2013-01-16 04:17:00,34.1,23.3,30.20,East,90,0.0,0.0,64,0.00,,,0.00,WUHU21623XXSP,2013-01-16 12:17:00,
2013-01-16 04:22:00,34.1,23.3,30.20,East,90,0.0,0.0,64,0.00,,,0.00,WUHU21623XXSP,2013-01-16 12:22:00,
2013-01-16 04:27:00,34.0,23.2,30.20,East,90,0.0,0.0,64,0.00,,,0.00,WUHU21623XXSP,2013-01-16 12:27:00,
2013-01-16 04:32:00,34.0,23.2,30.20,East,90,0.0,0.0,64,0.00,,,0.00,WUHU21623XXSP,2013-01-16 12:32:00,
2013-01-16 04:37:00,34.0,23.2,30.19,East,90,0.0,0.0,64,0.00,,,0.00,WUHU21623XXSP,2013-01-16 12:37:00,
2013-01-16 04:42:00,34.0,23.2,30.19,ESE,112,0.0,0.0,64,0.00,,,0.00,WUHU21623XXSP,2013-01-16 12:42:00,
2013-01-16 04:47:00,34.0,23.2,30.19,ESE,112,0.0,0.0,64,0.00,,,0.00,WUHU21623XXSP,2013-01-16 12:47:00,
2013-01-16 04:52:00,33.8,23.0,30.19,SE,135,0.0,0.0,64,0.00,,,0.00,WUHU21623XXSP,2013-01-16 12:52:00,
2013-01-16 04:57:00,33.8,23.0,30.19,SSW,202,0.0,0.0,64,0.00,,,0.00,WUHU21623XXSP,2013-01-16 12:57:00,
2013-01-16 05:02:00,33.8,23.0,30.19,SSW,202,0.0,0.0,64,0.00,,,0.00,WUHU21623XXSP,2013-01-16 13:02:00,
2013-01-16 05:07:00,33.4,22.6,30.18,SSW,202,0.0,0.0,64,0.00,,,0.00,WUHU21623XXSP,2013-01-16 13:07:00,
2013-01-16 05:12:00,33.4,22.6,30.18,SSW,202,0.0,0.0,64,0.00,,,0.00,WUHU21623XXSP,2013-01-16 13:12:00,
2013-01-16 05:17:00,33.2,22.4,30.18,SSW,202,0.0,0.0,64,0.00,,,0.00,WUHU21623XXSP,2013-01-16 13:17:00,
2013-01-16 05:22:00,33.2,22.4,30.18,SSW,202,0.0,0.0,64,0.00,,,0.00,WUHU21623XXSP,2013-01-16 13:22:00,
2013-01-16 05:27:00,33.2,22.4,30.18,SSW,202,0.0,0.0,64,0.00,,,0.00,WUHU21623XXSP,2013-01-16 13:27:00,
2013-01-16 05:32:00,33.2,22.4,30.18,ENE,67,9.6,9.6,64,0.00,,,0.00,WUHU21623XXSP,2013-01-16 13:32:00,
2013-01-16 05:37:00,33.2,23.1,30.18,NE,45,11.6,13.2,66,0.00,,,0.00,WUHU21623XXSP,2013-01-16 13:37:00,
2013-01-16 05:42:00,33.4,23.7,30.17,ENE,67,8.9,13.2,67,0.00,,,0.00,WUHU21623XXSP,2013-01-16 13:42:00,
2013-01-16 05:47:00,33.8,24.1,30.18,NE,45,8.5,11.9,67,0.00,,,0.00,WUHU21623XXSP,2013-01-16 13:47:00,
2013-01-16 05:52:00,34.0,24.6,30.18,ENE,67,7.4,11.2,68,0.00,,,0.00,WUHU21623XXSP,2013-01-16 13:52:00,
2013-01-16 05:57:00,34.1,24.7,30.17,NE,45,7.4,10.1,68,0.00,,,0.00,WUHU21623XXSP,2013-01-16 13:57:00,
2013-01-16 06:02:00,34.3,25.3,30.18,ENE,67,8.5,9.6,69,0.00,,,0.00,WUHU21623XXSP,2013-01-16 14:02:00,
2013-01-16 06:07:00,34.3,25.3,30.18,ENE,67,7.8,9.6,69,0.00,,,0.00,WUHU21623XXSP,2013-01-16 14:07:00,
2013-01-16 06:12:00,34.5,25.4,30.18,ENE,67,11.4,11.4,69,0.00,,,0.00,WUHU21623XXSP,2013-01-16 14:12:00,
2013-01-16 06:17:00,34.5,25.4,30.18,NE,45,8.9,12.1,69,0.00,,,0.00,WUHU21623XXSP,2013-01-16 14:17:00,
2013-01-16 06:22:00,34.7,25.6,30.18,ENE,67,12.3,12.5,69,0.00,,,0.00,WUHU21623XXSP,2013-01-16 14:22:00,
2013-01-16 06:27:00,34.7,25.6,30.18,NE,45,11.0,14.8,69,0.00,,,0.00,WUHU21623XXSP,2013-01-16 14:27:00,
2013-01-16 06:32:00,34.9,25.8,30.18,ENE,67,10.1,14.8,69,0.00,,,0.00,WUHU21623XXSP,2013-01-16 14:32:00,
2013-01-16 06:37:00,34.9,25.8,30.18,ENE,67,11.9,13.2,69,0.00,,,0.00,WUHU21623XXSP,2013-01-16 14:37:00,
2013-01-16 06:42:00,35.0,25.9,30.18,ENE,67,9.2,14.8,69,0.00,,,0.00,WUHU21623XXSP,2013-01-16 14:42:00,
2013-01-16 06:47:00,35.2,26.1,30.18,ENE,65,11.7,16.3,69,0.00,,,0.00,WUHU21623XXSP,2013-01-16 14:47:00,
2013-01-16 06:52:00,35.2,26.1,30.18,ENE,67,15.9,17.2,69,0.00,,,0.00,WUHU21623XXSP,2013-01-16 14:52:00,
2013-01-16 06:57:00,35.4,26.3,30.18,ENE,62,11.7,17.2,69,0.00,,,0.00,WUHU21623XXSP,2013-01-16 14:57:00,
2013-01-16 07:02:00,35.6,26.5,30.18,ENE,67,10.7,16.6,69,0.00,,,0.00,WUHU21623XXSP,2013-01-16 15:02:00,
2013-01-16 07:07:00,35.9,26.8,30.18,ENE,67,10.5,16.6,69,0.00,,,0.00,WUHU21623XXSP,2013-01-16 15:07:00,
2013-01-16 07:12:00,35.9,26.8,30.18,ENE,67,9.6,14.8,69,0.00,,,0.00,WUHU21623XXSP,2013-01-16 15:12:00,
2013-01-16 07:17:00,36.3,27.2,30.19,ENE,67,12.1,13.0,69,0.00,,,0.00,WUHU21623XXSP,2013-01-16 15:17:00,
2013-01-16 07:23:00,36.5,27.4,30.19,East,90,6.7,12.5,69,0.00,,,0.00,WUHU21623XXSP,2013-01-16 15:23:00,
2013-01-16 07:28:00,36.5,27.0,30.19,ENE,67,7.2,11.2,68,0.00,,,0.00,WUHU21623XXSP,2013-01-16 15:28:00,
2013-01-16 07:33:00,36.7,27.2,30.19,ENE,67,8.9,11.4,68,0.00,,,0.00,WUHU21623XXSP,2013-01-16 15:33:00,
2013-01-16 07:38:00,36.8,27.3,30.19,ENE,67,3.4,11.4,68,0.00,,,0.00,WUHU21623XXSP,2013-01-16 15:38:00,
2013-01-16 07:43:00,37.0,27.1,30.19,ENE,67,0.0,10.3,67,0.00,,,0.00,WUHU21623XXSP,2013-01-16 15:43:00,
2013-01-16 07:48:00,37.0,27.1,30.19,ENE,67,0.0,4.5,67,0.00,,,0.00,WUHU21623XXSP,2013-01-16 15:48:00,
2013-01-16 07:53:00,37.4,27.5,30.20,ENE,67,0.0,0.0,67,0.00,,,0.00,WUHU21623XXSP,2013-01-16 15:53:00,
2013-01-16 07:58:00,37.4,27.5,30.20,ENE,67,0.0,0.0,67,0.00,,,0.00,WUHU21623XXSP,2013-01-16 15:58:00,
2013-01-16 08:03:00,37.4,27.5,30.20,ENE,67,0.0,0.0,67,0.00,,,0.00,WUHU21623XXSP,2013-01-16 16:03:00,
2013-01-16 08:08:00,37.4,27.5,30.20,ENE,67,3.8,4.7,67,0.00,,,0.00,WUHU21623XXSP,2013-01-16 16:08:00,
2013-01-16 08:13:00,37.6,27.7,30.20,ENE,67,3.6,4.7,67,0.00,,,0.00,WUHU21623XXSP,2013-01-16 16:13:00,
2013-01-16 08:18:00,37.7,27.4,30.20,ENE,67,0.0,3.6,66,0.00,,,0.00,WUHU21623XXSP,2013-01-16 16:18:00,
2013-01-16 08:23:00,37.9,27.6,30.20,ENE,67,0.0,3.6,66,0.00,,,0.00,WUHU21623XXSP,2013-01-16 16:23:00,
2013-01-16 08:28:00,38.1,27.8,30.20,ENE,67,0.0,0.0,66,0.00,,,0.00,WUHU21623XXSP,2013-01-16 16:28:00,
2013-01-16 08:33:00,38.5,28.2,30.20,ENE,67,6.0,6.0,66,0.00,,,0.00,WUHU21623XXSP,2013-01-16 16:33:00,
2013-01-16 08:38:00,38.6,27.9,30.20,ENE,67,0.0,6.5,65,0.00,,,0.00,WUHU21623XXSP,2013-01-16 16:38:00,
2013-01-16 08:43:00,39.0,28.3,30.20,NE,45,9.6,9.6,65,0.00,,,0.00,WUHU21623XXSP,2013-01-16 16:43:00,
2013-01-16 08:48:00,39.5,28.8,30.20,ENE,67,7.2,11.0,65,0.00,,,0.00,WUHU21623XXSP,2013-01-16 16:48:00,
2013-01-16 08:53:00,39.7,28.6,30.20,ENE,67,11.9,15.9,64,0.00,,,0.00,WUHU21623XXSP,2013-01-16 16:53:00,
2013-01-16 08:58:00,40.1,28.6,30.20,ENE,67,14.8,15.9,63,0.00,,,0.00,WUHU21623XXSP,2013-01-16 16:58:00,
2013-01-16 09:03:00,40.4,28.9,30.20,ENE,67,13.2,14.8,63,0.00,,,0.00,WUHU21623XXSP,2013-01-16 17:03:00,
2013-01-16 09:08:00,41.0,29.0,30.20,ENE,64,10.9,14.8,62,0.00,,,0.00,WUHU21623XXSP,2013-01-16 17:08:00,
2013-01-16 09:13:00,41.2,29.2,30.20,ENE,67,10.1,13.6,62,0.00,,,0.00,WUHU21623XXSP,2013-01-16 17:13:00,
2013-01-16 09:18:00,41.5,29.1,30.20,NE,45,9.2,12.1,61,0.00,,,0.00,WUHU21623XXSP,2013-01-16 17:18:00,
2013-01-16 09:23:00,41.9,29.5,30.20,ENE,67,6.9,11.2,61,0.00,,,0.00,WUHU21623XXSP,2013-01-16 17:23:00,
2013-01-16 09:28:00,42.4,29.6,30.21,NE,45,6.0,13.4,60,0.00,,,0.00,WUHU21623XXSP,2013-01-16 17:28:00,
2013-01-16 09:33:00,42.8,29.9,30.21,NE,45,11.9,13.4,60,0.00,,,0.00,WUHU21623XXSP,2013-01-16 17:33:00,
2013-01-16 09:38:00,43.0,29.7,30.21,NE,45,10.7,14.8,59,0.00,,,0.00,WUHU21623XXSP,2013-01-16 17:38:00,
2013-01-16 09:43:00,43.3,30.0,30.20,ENE,67,6.9,17.2,59,0.00,,,0.00,WUHU21623XXSP,2013-01-16 17:43:00,
2013-01-16 09:48:00,43.7,29.9,30.20,NE,45,10.5,17.2,58,0.00,,,0.00,WUHU21623XXSP,2013-01-16 17:48:00,
2013-01-16 09:53:00,44.0,30.2,30.20,East,90,9.6,13.6,58,0.00,,,0.00,WUHU21623XXSP,2013-01-16 17:53:00,
2013-01-16 09:58:00,44.2,30.0,30.20,ENE,67,11.6,15.0,57,0.00,,,0.00,WUHU21623XXSP,2013-01-16 17:58:00,
2013-01-16 10:03:00,44.6,30.4,30.20,NE,45,9.8,16.3,57,0.00,,,0.00,WUHU21623XXSP,2013-01-16 18:03:00,
2013-01-16 10:08:00,44.8,30.5,30.21,ENE,67,13.2,17.9,57,0.00,,,0.00,WUHU21623XXSP,2013-01-16 18:08:00,
2013-01-16 10:13:00,45.1,30.8,30.22,ENE,67,13.0,17.9,57,0.00,,,0.00,WUHU21623XXSP,2013-01-16 18:13:00,
2013-01-16 10:18:00,45.1,30.4,30.21,ENE,67,11.0,16.1,56,0.00,,,0.00,WUHU21623XXSP,2013-01-16 18:18:00,
2013-01-16 10:23:00,45.3,30.6,30.21,ENE,67,11.9,16.1,56,0.00,,,0.00,WUHU21623XXSP,2013-01-16 18:23:00,
2013-01-16 10:28:00,45.7,30.9,30.21,ENE,67,11.6,16.6,56,0.00,,,0.00,WUHU21623XXSP,2013-01-16 18:28:00,
2013-01-16 10:33:00,45.8,31.0,30.20,NE,45,14.8,17.4,56,0.00,,,0.00,WUHU21623XXSP,2013-01-16 18:33:00,
2013-01-16 10:38:00,46.0,30.8,30.20,ENE,67,13.4,18.8,55,0.00,,,0.00,WUHU21623XXSP,2013-01-16 18:38:00,
2013-01-16 10:43:00,46.0,30.8,30.20,ENE,67,15.7,18.8,55,0.00,,,0.00,WUHU21623XXSP,2013-01-16 18:43:00,
2013-01-16 10:48:00,46.0,30.8,30.20,NNE,22,10.5,18.8,55,0.00,,,0.00,WUHU21623XXSP,2013-01-16 18:48:00,
2013-01-16 10:53:00,46.2,30.9,30.20,ENE,67,11.0,16.8,55,0.00,,,0.00,WUHU21623XXSP,2013-01-16 18:53:00,
2013-01-16 10:58:00,46.4,30.7,30.20,NE,45,10.3,17.4,54,0.00,,,0.00,WUHU21623XXSP,2013-01-16 18:58:00,
2013-01-16 11:03:00,46.6,30.9,30.20,NE,45,16.3,20.6,54,0.00,,,0.00,WUHU21623XXSP,2013-01-16 19:03:00,
2013-01-16 11:08:00,46.6,30.9,30.20,ENE,67,16.1,20.6,54,0.00,,,0.00,WUHU21623XXSP,2013-01-16 19:08:00,
2013-01-16 11:13:00,46.6,30.4,30.19,ENE,67,15.0,19.0,53,0.00,,,0.00,WUHU21623XXSP,2013-01-16 19:13:00,
2013-01-16 11:18:00,46.7,30.5,30.19,NE,45,11.9,19.5,53,0.00,,,0.00,WUHU21623XXSP,2013-01-16 19:18:00,
2013-01-16 11:23:00,46.7,30.5,30.19,ENE,67,15.0,19.7,53,0.00,,,0.00,WUHU21623XXSP,2013-01-16 19:23:00,
2013-01-16 11:28:00,46.7,30.5,30.19,ENE,67,10.5,19.7,53,0.00,,,0.00,WUHU21623XXSP,2013-01-16 19:28:00,
2013-01-16 11:33:00,46.7,30.5,30.18,NE,45,11.2,18.3,53,0.00,,,0.00,WUHU21623XXSP,2013-01-16 19:33:00,
2013-01-16 11:38:00,46.9,30.2,30.18,ENE,67,13.2,18.3,52,0.00,,,0.00,WUHU21623XXSP,2013-01-16 19:38:00,
2013-01-16 11:43:00,47.1,30.4,30.18,NE,54,12.1,18.1,52,0.00,,,0.00,WUHU21623XXSP,2013-01-16 19:43:00,
2013-01-16 11:48:00,47.1,30.4,30.18,NE,53,12.3,18.1,52,0.00,,,0.00,WUHU21623XXSP,2013-01-16 19:48:00,
2013-01-16 11:53:00,47.3,30.6,30.17,ENE,67,12.5,17.7,52,0.00,,,0.00,WUHU21623XXSP,2013-01-16 19:53:00,
2013-01-16 11:58:00,47.3,30.6,30.17,NE,54,11.7,15.2,52,0.00,,,0.00,WUHU21623XXSP,2013-01-16 19:58:00,
2013-01-16 12:03:00,47.6,30.3,30.17,ENE,67,11.9,18.1,51,0.00,,,0.00,WUHU21623XXSP,2013-01-16 20:03:00,
2013-01-16 12:08:00,47.6,30.8,30.16,NE,45,15.0,18.1,52,0.00,,,0.00,WUHU21623XXSP,2013-01-16 20:08:00,
2013-01-16 12:13:00,47.8,31.0,30.16,NE,45,10.5,16.6,52,0.00,,,0.00,WUHU21623XXSP,2013-01-16 20:13:00,
2013-01-16 12:18:00,47.8,30.5,30.16,NE,54,12.5,17.7,51,0.00,,,0.00,WUHU21623XXSP,2013-01-16 20:18:00,
2013-01-16 12:23:00,47.8,30.5,30.16,NE,53,11.5,17.7,51,0.00,,,0.00,WUHU21623XXSP,2013-01-16 20:23:00,
2013-01-16 12:28:00,48.2,30.9,30.15,NE,45,13.4,16.8,51,0.00,,,0.00,WUHU21623XXSP,2013-01-16 20:28:00,
2013-01-16 12:33:00,48.4,31.1,30.15,NE,45,13.2,17.0,51,0.00,,,0.00,WUHU21623XXSP,2013-01-16 20:33:00,
2013-01-16 12:38:00,48.4,31.1,30.15,ENE,67,16.8,17.0,51,0.00,,,0.00,WUHU21623XXSP,2013-01-16 20:38:00,
2013-01-16 12:43:00,48.5,31.2,30.15,NE,45,18.3,18.3,51,0.00,,,0.00,WUHU21623XXSP,2013-01-16 20:43:00,
2013-01-16 12:48:00,48.7,31.4,30.15,NNE,22,8.9,18.3,51,0.00,,,0.00,WUHU21623XXSP,2013-01-16 20:48:00,
2013-01-16 12:53:00,48.7,31.4,30.14,NE,45,13.4,18.3,51,0.00,,,0.00,WUHU21623XXSP,2013-01-16 20:53:00,
2013-01-16 12:58:00,48.9,31.5,30.14,ENE,67,7.4,17.7,51,0.00,,,0.00,WUHU21623XXSP,2013-01-16 20:58:00,
2013-01-16 13:03:00,49.1,31.7,30.14,ENE,67,1.3,17.9,51,0.00,,,0.00,WUHU21623XXSP,2013-01-16 21:03:00,
2013-01-16 13:08:00,49.1,31.7,30.14,NE,45,11.0,17.9,51,0.00,,,0.00,WUHU21623XXSP,2013-01-16 21:08:00,
2013-01-16 13:13:00,49.4,32.0,30.13,ENE,67,12.8,16.3,51,0.00,,,0.00,WUHU21623XXSP,2013-01-16 21:13:00,
2013-01-16 13:18:00,49.4,32.0,30.13,ENE,67,15.0,16.6,51,0.00,,,0.00,WUHU21623XXSP,2013-01-16 21:18:00,
2013-01-16 13:23:00,49.4,32.0,30.13,ENE,67,13.2,16.6,51,0.00,,,0.00,WUHU21623XXSP,2013-01-16 21:23:00,
2013-01-16 13:28:00,49.6,32.2,30.14,ENE,67,10.1,15.9,51,0.00,,,0.00,WUHU21623XXSP,2013-01-16 21:28:00,
2013-01-16 13:33:00,49.6,32.2,30.13,ENE,67,8.3,14.8,51,0.00,,,0.00,WUHU21623XXSP,2013-01-16 21:33:00,
2013-01-16 13:38:00,49.8,32.4,30.13,ENE,67,9.6,16.3,51,0.00,,,0.00,WUHU21623XXSP,2013-01-16 21:38:00,
2013-01-16 13:43:00,50.0,32.6,30.13,NE,45,7.8,16.3,51,0.00,,,0.00,WUHU21623XXSP,2013-01-16 21:43:00,
2013-01-16 13:48:00,50.2,32.8,30.13,ENE,67,10.3,15.7,51,0.00,,,0.00,WUHU21623XXSP,2013-01-16 21:48:00,
2013-01-16 13:53:00,50.3,32.8,30.13,ENE,67,12.3,15.7,51,0.00,,,0.00,WUHU21623XXSP,2013-01-16 21:53:00,
2013-01-16 13:58:00,50.3,32.8,30.12,ENE,67,10.3,15.7,51,0.00,,,0.00,WUHU21623XXSP,2013-01-16 21:58:00,
2013-01-16 14:03:00,50.3,32.8,30.13,ENE,60,10.2,15.0,51,0.00,,,0.00,WUHU21623XXSP,2013-01-16 22:03:00,
2013-01-16 14:08:00,50.3,32.8,30.12,ENE,58,10.8,15.4,51,0.00,,,0.00,WUHU21623XXSP,2013-01-16 22:08:00,
2013-01-16 14:13:00,50.5,33.0,30.12,East,90,12.1,15.4,51,0.00,,,0.00,WUHU21623XXSP,2013-01-16 22:13:00,
2013-01-16 14:18:00,50.5,33.0,30.12,ENE,67,4.9,16.8,51,0.00,,,0.00,WUHU21623XXSP,2013-01-16 22:18:00,
2013-01-16 14:23:00,50.5,33.0,30.12,NE,45,9.6,16.8,51,0.00,,,0.00,WUHU21623XXSP,2013-01-16 22:23:00,
2013-01-16 14:28:00,50.5,33.0,30.12,ENE,67,9.4,15.0,51,0.00,,,0.00,WUHU21623XXSP,2013-01-16 22:28:00,
2013-01-16 14:33:00,50.5,33.0,30.12,NE,45,13.4,16.1,51,0.00,,,0.00,WUHU21623XXSP,2013-01-16 22:33:00,
2013-01-16 14:38:00,50.5,33.0,30.12,ENE,67,9.6,17.0,51,0.00,,,0.00,WUHU21623XXSP,2013-01-16 22:38:00,
2013-01-16 14:43:00,50.5,33.0,30.12,NE,45,8.7,17.0,51,0.00,,,0.00,WUHU21623XXSP,2013-01-16 22:43:00,
2013-01-16 14:48:00,50.5,33.0,30.12,NE,45,15.7,17.0,51,0.00,,,0.00,WUHU21623XXSP,2013-01-16 22:48:00,
2013-01-16 14:53:00,50.5,33.0,30.12,NE,45,12.1,17.0,51,0.00,,,0.00,WUHU21623XXSP,2013-01-16 22:53:00,
2013-01-16 14:58:00,50.5,33.0,30.12,NE,45,8.7,13.6,51,0.00,,,0.00,WUHU21623XXSP,2013-01-16 22:58:00,
2013-01-16 15:03:00,50.5,33.0,30.12,ENE,67,8.1,15.7,51,0.00,,,0.00,WUHU21623XXSP,2013-01-16 23:03:00,
2013-01-16 15:08:00,50.3,32.8,30.12,NE,45,12.3,16.8,51,0.00,,,0.00,WUHU21623XXSP,2013-01-16 23:08:00,
2013-01-16 15:13:00,50.3,33.3,30.12,NE,45,6.9,16.8,52,0.00,,,0.00,WUHU21623XXSP,2013-01-16 23:13:00,
2013-01-16 15:18:00,50.3,33.3,30.12,ENE,67,10.3,13.6,52,0.00,,,0.00,WUHU21623XXSP,2013-01-16 23:18:00,
2013-01-16 15:23:00,50.3,33.3,30.12,NE,45,12.3,14.8,52,0.00,,,0.00,WUHU21623XXSP,2013-01-16 23:23:00,
2013-01-16 15:28:00,50.3,33.3,30.12,NE,55,10.1,14.8,52,0.00,,,0.00,WUHU21623XXSP,2013-01-16 23:28:00,
2013-01-16 15:33:00,50.5,33.5,30.12,ENE,67,8.5,15.0,52,0.00,,,0.00,WUHU21623XXSP,2013-01-16 23:33:00,
2013-01-16 15:38:00,50.5,33.5,30.12,ENE,67,7.4,15.0,52,0.00,,,0.00,WUHU21623XXSP,2013-01-16 23:38:00,
2013-01-16 15:43:00,50.5,33.5,30.12,ENE,67,8.3,15.0,52,0.00,,,0.00,WUHU21623XXSP,2013-01-16 23:43:00,
2013-01-16 15:48:00,50.5,33.5,30.12,NNE,22,7.4,15.0,52,0.00,,,0.00,WUHU21623XXSP,2013-01-16 23:48:00,
2013-01-16 15:53:00,50.3,33.3,30.12,NNE,22,13.4,13.6,52,0.00,,,0.00,WUHU21623XXSP,2013-01-16 23:53:00,
2013-01-16 15:58:00,50.3,33.3,30.12,NNE,22,9.4,13.6,52,0.00,,,0.00,WUHU21623XXSP,2013-01-16 23:58:00,
2013-01-16 16:03:00,50.3,33.3,30.12,NNE,22,11.2,13.6,52,0.00,,,0.00,WUHU21623XXSP,2013-01-17 00:03:00,
2013-01-16 16:08:00,50.3,33.3,30.12,NE,45,9.2,13.6,52,0.00,,,0.00,WUHU21623XXSP,2013-01-17 00:08:00,
2013-01-16 16:13:00,50.3,33.3,30.12,NE,45,4.5,12.8,52,0.00,,,0.00,WUHU21623XXSP,2013-01-17 00:13:00,
2013-01-16 16:18:00,50.3,33.3,30.12,NE,45,8.5,12.8,52,0.00,,,0.00,WUHU21623XXSP,2013-01-17 00:18:00,
2013-01-16 16:23:00,50.3,33.3,30.12,ENE,67,0.0,12.1,52,0.00,,,0.00,WUHU21623XXSP,2013-01-17 00:23:00,
2013-01-16 16:28:00,50.5,33.5,30.12,NE,45,9.8,12.1,52,0.00,,,0.00,WUHU21623XXSP,2013-01-17 00:28:00,
2013-01-16 16:33:00,51.2,34.2,30.12,ENE,67,7.2,10.3,52,0.00,,,0.00,WUHU21623XXSP,2013-01-17 00:33:00,
2013-01-16 16:38:00,51.4,33.4,30.12,NE,45,8.9,9.8,50,0.00,,,0.00,WUHU21623XXSP,2013-01-17 00:38:00,
2013-01-16 16:43:00,51.8,33.7,30.12,NE,45,5.6,9.6,50,0.00,,,0.00,WUHU21623XXSP,2013-01-17 00:43:00,
2013-01-16 16:48:00,52.1,34.0,30.12,ENE,67,3.4,8.9,50,0.00,,,0.00,WUHU21623XXSP,2013-01-17 00:48:00,
2013-01-16 16:53:00,52.5,33.8,30.12,ENE,67,0.0,7.8,49,0.00,,,0.00,WUHU21623XXSP,2013-01-17 00:53:00,
2013-01-16 16:58:00,52.7,34.0,30.11,NE,45,5.4,7.6,49,0.00,,,0.00,WUHU21623XXSP,2013-01-17 00:58:00,
2013-01-16 17:03:00,52.1,33.5,30.11,NE,45,5.4,8.3,49,0.00,,,0.00,WUHU21623XXSP,2013-01-17 01:03:00,
2013-01-16 17:08:00,51.4,33.4,30.11,NE,45,8.3,8.5,50,0.00,,,0.00,WUHU21623XXSP,2013-01-17 01:08:00,
2013-01-16 17:13:00,50.9,32.9,30.11,NE,45,7.6,8.5,50,0.00,,,0.00,WUHU21623XXSP,2013-01-17 01:13:00,
2013-01-16 17:18:00,50.3,32.3,30.11,NE,45,5.6,9.8,50,0.00,,,0.00,WUHU21623XXSP,2013-01-17 01:18:00,
2013-01-16 17:23:00,49.8,32.4,30.10,NE,45,4.0,12.3,51,0.00,,,0.00,WUHU21623XXSP,2013-01-17 01:23:00,
2013-01-16 17:28:00,49.4,32.0,30.11,ENE,67,5.4,12.3,51,0.00,,,0.00,WUHU21623XXSP,2013-01-17 01:28:00,
2013-01-16 17:33:00,48.7,31.9,30.10,ENE,67,6.0,12.1,52,0.00,,,0.00,WUHU21623XXSP,2013-01-17 01:33:00,
2013-01-16 17:38:00,47.8,31.0,30.10,ENE,67,0.0,12.1,52,0.00,,,0.00,WUHU21623XXSP,2013-01-17 01:38:00,
2013-01-16 17:43:00,47.3,30.6,30.10,ENE,67,4.0,7.6,52,0.00,,,0.00,WUHU21623XXSP,2013-01-17 01:43:00,
2013-01-16 17:48:00,46.7,30.5,30.10,ENE,67,3.6,8.1,53,0.00,,,0.00,WUHU21623XXSP,2013-01-17 01:48:00,
2013-01-16 17:53:00,46.4,30.2,30.10,ENE,67,7.4,8.7,53,0.00,,,0.00,WUHU21623XXSP,2013-01-17 01:53:00,
2013-01-16 17:58:00,46.0,30.3,30.10,ENE,67,7.4,9.8,54,0.00,,,0.00,WUHU21623XXSP,2013-01-17 01:58:00,
2013-01-16 18:03:00,45.7,30.0,30.10,ENE,67,8.3,9.8,54,0.00,,,0.00,WUHU21623XXSP,2013-01-17 02:03:00,
2013-01-16 18:08:00,45.3,30.1,30.10,ENE,67,7.8,9.8,55,0.00,,,0.00,WUHU21623XXSP,2013-01-17 02:08:00,
2013-01-16 18:13:00,45.1,29.9,30.10,NE,45,4.7,9.8,55,0.00,,,0.00,WUHU21623XXSP,2013-01-17 02:13:00,
2013-01-16 18:18:00,44.9,29.7,30.10,ENE,67,1.8,9.6,55,0.00,,,0.00,WUHU21623XXSP,2013-01-17 02:18:00,
2013-01-16 18:23:00,44.8,30.1,30.10,NE,45,0.0,6.7,56,0.00,,,0.00,WUHU21623XXSP,2013-01-17 02:23:00,
2013-01-16 18:28:00,44.6,29.9,30.10,ENE,67,0.0,5.1,56,0.00,,,0.00,WUHU21623XXSP,2013-01-17 02:28:00,
2013-01-16 18:33:00,44.2,29.5,30.09,ENE,67,0.0,3.6,56,0.00,,,0.00,WUHU21623XXSP,2013-01-17 02:33:00,
2013-01-16 18:38:00,44.2,29.5,30.09,NE,45,0.0,4.0,56,0.00,,,0.00,WUHU21623XXSP,2013-01-17 02:38:00,
2013-01-16 18:43:00,44.2,29.5,30.09,NE,45,0.0,4.0,56,0.00,,,0.00,WUHU21623XXSP,2013-01-17 02:43:00,
2013-01-16 18:48:00,44.0,29.3,30.09,ENE,67,6.0,6.0,56,0.00,,,0.00,WUHU21623XXSP,2013-01-17 02:48:00,
2013-01-16 18:53:00,43.7,29.1,30.09,ENE,67,6.3,6.3,56,0.00,,,0.00,WUHU21623XXSP,2013-01-17 02:53:00,
2013-01-16 18:58:00,43.7,29.5,30.09,NE,45,4.9,7.8,57,0.00,,,0.00,WUHU21623XXSP,2013-01-17 02:58:00,
2013-01-16 19:03:00,43.9,29.7,30.09,ENE,67,0.0,7.8,57,0.00,,,0.00,WUHU21623XXSP,2013-01-17 03:03:00,
2013-01-16 19:08:00,43.7,29.5,30.09,ENE,67,3.4,7.6,57,0.00,,,0.00,WUHU21623XXSP,2013-01-17 03:08:00,
2013-01-16 19:13:00,43.7,29.5,30.09,NE,45,7.4,9.4,57,0.00,,,0.00,WUHU21623XXSP,2013-01-17 03:13:00,
2013-01-16 19:18:00,43.7,29.5,30.08,ENE,67,6.3,9.4,57,0.00,,,0.00,WUHU21623XXSP,2013-01-17 03:18:00,
2013-01-16 19:23:00,43.7,29.5,30.09,NE,45,5.6,8.3,57,0.00,,,0.00,WUHU21623XXSP,2013-01-17 03:23:00,
2013-01-16 19:28:00,43.7,29.5,30.08,NE,45,5.4,8.3,57,0.00,,,0.00,WUHU21623XXSP,2013-01-17 03:28:00,
2013-01-16 19:33:00,43.7,29.5,30.08,ENE,67,0.0,8.3,57,0.00,,,0.00,WUHU21623XXSP,2013-01-17 03:33:00,
2013-01-16 19:38:00,43.9,29.7,30.08,East,90,0.0,7.8,57,0.00,,,0.00,WUHU21623XXSP,2013-01-17 03:38:00,
2013-01-16 19:43:00,44.0,29.3,30.08,East,90,0.0,0.0,56,0.00,,,0.00,WUHU21623XXSP,2013-01-17 03:43:00,
2013-01-16 19:48:00,43.7,29.1,30.08,East,90,0.0,0.0,56,0.00,,,0.00,WUHU21623XXSP,2013-01-17 03:48:00,
2013-01-16 19:53:00,43.5,28.9,30.08,East,90,4.0,7.4,56,0.00,,,0.00,WUHU21623XXSP,2013-01-17 03:53:00,
2013-01-16 19:58:00,43.5,28.9,30.08,ENE,67,7.4,7.4,56,0.00,,,0.00,WUHU21623XXSP,2013-01-17 03:58:00,
2013-01-16 20:03:00,43.5,28.9,30.08,ENE,67,1.6,8.7,56,0.00,,,0.00,WUHU21623XXSP,2013-01-17 04:03:00,
2013-01-16 20:08:00,43.5,28.9,30.08,NE,45,0.0,8.7,56,0.00,,,0.00,WUHU21623XXSP,2013-01-17 04:08:00,
2013-01-16 20:13:00,43.3,28.7,30.08,NE,45,0.0,6.3,56,0.00,,,0.00,WUHU21623XXSP,2013-01-17 04:13:00,
2013-01-16 20:18:00,43.3,28.7,30.07,ENE,67,8.3,11.4,56,0.00,,,0.00,WUHU21623XXSP,2013-01-17 04:18:00,
2013-01-16 20:23:00,43.3,28.7,30.07,ENE,67,4.9,11.4,56,0.00,,,0.00,WUHU21623XXSP,2013-01-17 04:23:00,
2013-01-16 20:28:00,43.3,28.7,30.07,NE,45,7.6,10.7,56,0.00,,,0.00,WUHU21623XXSP,2013-01-17 04:28:00,
2013-01-16 20:33:00,43.3,28.7,30.07,ENE,67,6.9,10.3,56,0.00,,,0.00,WUHU21623XXSP,2013-01-17 04:33:00,
2013-01-16 20:38:00,43.3,28.7,30.07,NE,45,6.0,10.3,56,0.00,,,0.00,WUHU21623XXSP,2013-01-17 04:38:00,
2013-01-16 20:43:00,43.5,28.4,30.08,NE,45,6.9,9.8,55,0.00,,,0.00,WUHU21623XXSP,2013-01-17 04:43:00,
2013-01-16 20:48:00,43.5,28.4,30.08,NE,45,3.8,9.8,55,0.00,,,0.00,WUHU21623XXSP,2013-01-17 04:48:00,
2013-01-16 20:53:00,43.7,28.6,30.07,NE,45,0.0,8.1,55,0.00,,,0.00,WUHU21623XXSP,2013-01-17 04:53:00,
2013-01-16 20:58:00,43.7,28.6,30.08,ENE,67,0.0,8.1,55,0.00,,,0.00,WUHU21623XXSP,2013-01-17 04:58:00,
2013-01-16 21:02:00,43.7,28.6,30.07,NE,45,2.2,8.1,55,0.00,,,0.00,WUHU21623XXSP,2013-01-17 05:02:00,
2013-01-16 21:03:00,43.7,28.6,30.08,NNE,22,2.2,7.8,55,0.00,,,0.00,WUHU21623XXSP,2013-01-17 05:03:00,
2013-01-16 21:08:00,43.7,28.6,30.07,NE,45,6.5,9.8,55,0.00,,,0.00,WUHU21623XXSP,2013-01-17 05:08:00,
2013-01-16 21:13:00,43.7,28.6,30.08,ENE,67,6.7,9.8,55,0.00,,,0.00,WUHU21623XXSP,2013-01-17 05:13:00,
2013-01-16 21:18:00,43.7,28.6,30.07,NE,45,5.8,11.2,55,0.00,,,0.00,WUHU21623XXSP,2013-01-17 05:18:00,
2013-01-16 21:23:00,43.7,28.6,30.07,NE,45,5.1,11.2,55,0.00,,,0.00,WUHU21623XXSP,2013-01-17 05:23:00,
2013-01-16 21:28:00,43.7,28.6,30.07,NE,45,6.0,7.6,55,0.00,,,0.00,WUHU21623XXSP,2013-01-17 05:28:00,
2013-01-16 21:33:00,43.7,28.6,30.07,NNE,22,7.6,8.5,55,0.00,,,0.00,WUHU21623XXSP,2013-01-17 05:33:00,
2013-01-16 21:38:00,43.7,29.1,30.07,NE,45,5.8,8.5,56,0.00,,,0.00,WUHU21623XXSP,2013-01-17 05:38:00,
2013-01-16 21:43:00,43.7,29.1,30.07,NE,45,6.0,8.5,56,0.00,,,0.00,WUHU21623XXSP,2013-01-17 05:43:00,
2013-01-16 21:48:00,43.3,28.7,30.07,ENE,67,4.7,8.3,56,0.00,,,0.00,WUHU21623XXSP,2013-01-17 05:48:00,
2013-01-16 21:53:00,43.3,28.7,30.07,ENE,67,1.6,8.5,56,0.00,,,0.00,WUHU21623XXSP,2013-01-17 05:53:00,
2013-01-16 21:58:00,43.3,28.7,30.07,East,90,0.0,8.5,56,0.00,,,0.00,WUHU21623XXSP,2013-01-17 05:58:00,
2013-01-16 22:03:00,43.5,28.9,30.07,East,90,4.3,7.4,56,0.00,,,0.00,WUHU21623XXSP,2013-01-17 06:03:00,
2013-01-16 22:08:00,43.5,28.9,30.07,East,90,4.9,10.5,56,0.00,,,0.00,WUHU21623XXSP,2013-01-17 06:08:00,
2013-01-16 22:13:00,43.7,29.1,30.07,ESE,112,3.6,10.5,56,0.00,,,0.00,WUHU21623XXSP,2013-01-17 06:13:00,
2013-01-16 22:18:00,43.7,29.1,30.07,ENE,67,5.8,12.1,56,0.00,,,0.00,WUHU21623XXSP,2013-01-17 06:18:00,
2013-01-16 22:23:00,43.7,29.1,30.07,East,90,7.4,12.1,56,0.00,,,0.00,WUHU21623XXSP,2013-01-17 06:23:00,
2013-01-16 22:28:00,43.7,29.1,30.07,ENE,67,0.0,7.4,56,0.00,,,0.00,WUHU21623XXSP,2013-01-17 06:28:00,
2013-01-16 22:33:00,43.7,29.1,30.07,ENE,67,0.0,6.9,56,0.00,,,0.00,WUHU21623XXSP,2013-01-17 06:33:00,
2013-01-16 22:38:00,43.7,29.1,30.07,ENE,67,0.0,0.0,56,0.00,,,0.00,WUHU21623XXSP,2013-01-17 06:38:00,
2013-01-16 22:43:00,43.5,28.9,30.07,NE,45,0.0,0.0,56,0.00,,,0.00,WUHU21623XXSP,2013-01-17 06:43:00,
2013-01-16 22:48:00,43.3,28.7,30.07,NE,45,0.0,0.0,56,0.00,,,0.00,WUHU21623XXSP,2013-01-17 06:48:00,
2013-01-16 22:53:00,43.1,28.5,30.07,NE,45,0.0,0.0,56,0.00,,,0.00,WUHU21623XXSP,2013-01-17 06:53:00,
2013-01-16 22:58:00,43.0,28.4,30.07,NE,45,0.0,0.0,56,0.00,,,0.00,WUHU21623XXSP,2013-01-17 06:58:00,
2013-01-16 23:03:00,42.8,28.2,30.07,ENE,67,3.1,3.1,56,0.00,,,0.00,WUHU21623XXSP,2013-01-17 07:03:00,
2013-01-16 23:08:00,42.6,28.5,30.07,ENE,67,0.0,3.1,57,0.00,,,0.00,WUHU21623XXSP,2013-01-17 07:08:00,
2013-01-16 23:13:00,42.4,28.3,30.07,NE,45,2.2,5.1,57,0.00,,,0.00,WUHU21623XXSP,2013-01-17 07:13:00,
2013-01-16 23:18:00,42.4,28.3,30.07,NE,45,0.0,5.1,57,0.00,,,0.00,WUHU21623XXSP,2013-01-17 07:18:00,
2013-01-16 23:23:00,42.4,28.3,30.07,ENE,67,0.0,4.3,57,0.00,,,0.00,WUHU21623XXSP,2013-01-17 07:23:00,
2013-01-16 23:28:00,42.4,28.3,30.07,ENE,67,0.0,4.3,57,0.00,,,0.00,WUHU21623XXSP,2013-01-17 07:28:00,
2013-01-16 23:33:00,42.4,27.8,30.07,NE,45,3.4,4.3,56,0.00,,,0.00,WUHU21623XXSP,2013-01-17 07:33:00,
2013-01-16 23:38:00,42.2,27.7,30.07,NE,45,3.4,5.1,56,0.00,,,0.00,WUHU21623XXSP,2013-01-17 07:38:00,
2013-01-16 23:43:00,42.2,28.1,30.07,NNE,22,5.4,8.5,57,0.00,,,0.00,WUHU21623XXSP,2013-01-17 07:43:00,
2013-01-16 23:48:00,42.2,28.1,30.07,NNE,22,4.5,8.5,57,0.00,,,0.00,WUHU21623XXSP,2013-01-17 07:48:00,
2013-01-16 23:53:00,42.2,28.1,30.07,NE,45,6.5,8.5,57,0.00,,,0.00,WUHU21623XXSP,2013-01-17 07:53:00,
2013-01-16 23:58:00,42.2,28.1,30.07,NNE,22,4.9,8.5,57,0.00,,,0.00,WUHU21623XXSP,2013-01-17 07:58:00,